StationID,Date,MaxTemp,MinTemp,Precipitation,Snowfall,SnowDepth
"US1COLR0450","2001-05-16",,,0.00,0.00,0.00
"US1COLR0450","2001-05-17",,,13.00,0.00,0.00
"US1COLR0450","2001-05-18",,,48.00,0.00,0.00
"US1COLR0450","2001-05-19",,,20.00,0.00,0.00
"US1COLR0450","2001-05-20",,,5.00,0.00,0.00
"US1COLR0450","2001-05-21",,,20.00,0.00,0.00
"US1COLR0450","2001-05-22",,,0.00,0.00,0.00
"US1COLR0450","2001-05-23",,,0.00,0.00,0.00
"US1COLR0450","2001-05-24",,,0.00,0.00,0.00
"US1COLR0450","2001-05-25",,,0.00,0.00,0.00
"US1COLR0450","2001-05-26",,,0.00,0.00,0.00
"US1COLR0450","2001-05-27",,,25.00,0.00,0.00
"US1COLR0450","2001-05-28",,,18.00,0.00,0.00
"US1COLR0450","2001-05-29",,,0.00,0.00,0.00
"US1COLR0450","2001-05-30",,,5.00,0.00,0.00
"US1COLR0450","2001-05-31",,,28.00,0.00,0.00
"US1COLR0450","2001-06-01",,,0.00,0.00,0.00
"US1COLR0450","2001-06-02",,,0.00,0.00,0.00
"US1COLR0450","2001-06-03",,,0.00,0.00,0.00
"US1COLR0450","2001-06-04",,,51.00,0.00,0.00
"US1COLR0450","2001-06-05",,,18.00,0.00,0.00
"US1COLR0450","2001-06-06",,,0.00,0.00,0.00
"US1COLR0450","2001-06-07",,,0.00,0.00,0.00
"US1COLR0450","2001-06-08",,,0.00,0.00,0.00
"US1COLR0450","2001-06-09",,,0.00,0.00,0.00
"US1COLR0450","2001-06-10",,,15.00,0.00,0.00
"US1COLR0450","2001-06-11",,,0.00,0.00,0.00
"US1COLR0450","2001-06-12",,,0.00,0.00,0.00
"US1COLR0450","2001-06-13",,,0.00,0.00,0.00
"US1COLR0450","2001-06-14",,,56.00,0.00,0.00
"US1COLR0450","2001-06-15",,,0.00,0.00,0.00
"US1COLR0450","2001-06-16",,,0.00,0.00,0.00
"US1COLR0450","2001-06-17",,,0.00,0.00,0.00
"US1COLR0450","2001-06-18",,,0.00,0.00,0.00
"US1COLR0450","2001-06-19",,,0.00,0.00,0.00
"US1COLR0450","2001-06-20",,,0.00,0.00,0.00
"US1COLR0450","2001-06-21",,,3.00,0.00,0.00
"US1COLR0450","2001-06-24",,,0.00,0.00,0.00
"US1COLR0450","2001-06-25",,,0.00,0.00,0.00
"US1COLR0450","2001-06-26",,,0.00,0.00,0.00
"US1COLR0450","2001-06-27",,,0.00,0.00,0.00
"US1COLR0450","2001-06-30",,,0.00,0.00,0.00
"US1COLR0450","2001-07-03",,,0.00,0.00,0.00
"US1COLR0450","2001-07-04",,,3.00,0.00,0.00
"US1COLR0450","2001-07-05",,,0.00,0.00,0.00
"US1COLR0450","2001-07-06",,,0.00,0.00,0.00
"US1COLR0450","2001-07-07",,,28.00,0.00,0.00
"US1COLR0450","2001-07-08",,,48.00,0.00,0.00
"US1COLR0450","2001-07-09",,,0.00,0.00,0.00
"US1COLR0450","2001-07-11",,,18.00,0.00,0.00
"US1COLR0450","2001-07-12",,,10.00,0.00,0.00
"US1COLR0450","2001-07-13",,,71.00,0.00,0.00
"US1COLR0450","2001-07-14",,,0.00,0.00,0.00
"US1COLR0450","2001-07-16",,,0.00,0.00,0.00
"US1COLR0450","2001-07-19",,,0.00,0.00,0.00
"US1COLR0450","2001-07-23",,,0.00,0.00,0.00
"US1COLR0450","2001-07-27",,,25.00,0.00,0.00
"US1COLR0450","2001-07-28",,,0.00,0.00,0.00
"US1COLR0450","2001-07-29",,,0.00,0.00,0.00
"US1COLR0450","2001-07-31",,,0.00,0.00,0.00
"US1COLR0450","2001-08-01",,,81.00,0.00,0.00
"US1COLR0450","2001-08-02",,,3.00,0.00,0.00
"US1COLR0450","2001-08-06",,,0.00,0.00,0.00
"US1COLR0450","2001-08-07",,,28.00,0.00,0.00
"US1COLR0450","2001-08-08",,,0.00,0.00,0.00
"US1COLR0450","2001-08-09",,,76.00,0.00,0.00
"US1COLR0450","2001-08-10",,,15.00,0.00,0.00
"US1COLR0450","2001-08-11",,,5.00,0.00,0.00
"US1COLR0450","2001-08-12",,,0.00,0.00,0.00
"US1COLR0450","2001-08-13",,,48.00,0.00,0.00
"US1COLR0450","2001-08-14",,,3.00,0.00,0.00
"US1COLR0450","2001-08-15",,,36.00,0.00,0.00
"US1COLR0450","2001-08-16",,,13.00,0.00,0.00
"US1COLR0450","2001-08-17",,,3.00,0.00,0.00
"US1COLR0450","2001-08-18",,,0.00,0.00,0.00
"US1COLR0450","2001-08-19",,,0.00,0.00,0.00
"US1COLR0450","2001-08-20",,,0.00,0.00,0.00
"US1COLR0450","2001-08-21",,,3.00,0.00,0.00
"US1COLR0450","2001-08-22",,,0.00,0.00,0.00
"US1COLR0450","2001-08-23",,,0.00,0.00,0.00
"US1COLR0450","2001-08-24",,,0.00,0.00,0.00
"US1COLR0450","2001-08-25",,,5.00,0.00,0.00
"US1COLR0450","2001-08-26",,,0.00,0.00,0.00
"US1COLR0450","2001-08-27",,,0.00,0.00,0.00
"US1COLR0450","2001-08-28",,,0.00,0.00,0.00
"US1COLR0450","2001-08-29",,,0.00,0.00,0.00
"US1COLR0450","2001-08-31",,,0.00,0.00,0.00
"US1COLR0450","2001-09-01",,,0.00,0.00,0.00
"US1COLR0450","2001-09-02",,,18.00,0.00,0.00
"US1COLR0450","2001-09-03",,,0.00,0.00,0.00
"US1COLR0450","2001-09-04",,,0.00,0.00,0.00
"US1COLR0450","2001-09-05",,,0.00,0.00,0.00
"US1COLR0450","2001-09-06",,,10.00,0.00,0.00
"US1COLR0450","2001-09-07",,,3.00,0.00,0.00
"US1COLR0450","2001-09-08",,,71.00,0.00,0.00
"US1COLR0450","2001-09-09",,,30.00,0.00,0.00
"US1COLR0450","2001-09-10",,,0.00,0.00,0.00
"US1COLR0450","2001-09-14",,,8.00,0.00,0.00
"US1COLR0450","2001-09-15",,,28.00,0.00,0.00
"US1COLR0450","2001-09-16",,,10.00,0.00,0.00
"US1COLR0450","2001-09-17",,,3.00,0.00,0.00
"US1COLR0450","2001-09-28",,,0.00,0.00,0.00
"US1COLR0450","2001-09-29",,,0.00,0.00,0.00
"US1COLR0450","2001-09-30",,,69.00,0.00,0.00
"US1COLR0450","2001-10-01",,,0.00,0.00,0.00
"US1COLR0450","2001-10-18",,,0.00,0.00,0.00
"US1COLR0450","2001-10-22",,,0.00,0.00,0.00
"US1COLR0450","2001-10-23",,,0.00,0.00,0.00
"US1COLR0450","2001-10-24",,,0.00,0.00,0.00
"US1COLR0450","2001-11-08",,,109.00,28.00,13.00
"US1COLR0450","2001-11-10",,,0.00,0.00,0.00
"US1COLR0450","2001-11-14",,,0.00,0.00,0.00
"US1COLR0450","2001-11-16",,,0.00,0.00,0.00
"US1COLR0450","2001-11-17",,,0.00,0.00,0.00
"US1COLR0450","2001-11-18",,,0.00,0.00,0.00
"US1COLR0450","2001-11-22",,,0.00,0.00,0.00
"US1COLR0450","2001-11-23",,,0.00,0.00,0.00
"US1COLR0450","2001-11-26",,,74.00,97.00,97.00
"US1COLR0450","2001-11-27",,,8.00,5.00,66.00
"US1COLR0450","2001-12-14",,,0.00,0.00,0.00
"US1COLR0450","2001-12-15",,,0.00,0.00,0.00
"US1COLR0450","2001-12-16",,,10.00,18.00,18.00
"US1COLR0450","2001-12-28",,,0.00,0.00,0.00
"US1COLR0450","2002-01-01",,,30.00,58.00,58.00
"US1COLR0450","2002-01-02",,,0.00,0.00,25.00
"US1COLR0450","2002-01-03",,,0.00,0.00,15.00
"US1COLR0450","2002-01-04",,,0.00,0.00,0.00
"US1COLR0450","2002-01-05",,,0.00,0.00,0.00
"US1COLR0450","2002-01-06",,,0.00,0.00,0.00
"US1COLR0450","2002-01-07",,,0.00,0.00,0.00
"US1COLR0450","2002-01-08",,,0.00,0.00,0.00
"US1COLR0450","2002-01-09",,,0.00,0.00,0.00
"US1COLR0450","2002-01-10",,,89.00,71.00,71.00
"US1COLR0450","2002-01-11",,,0.00,0.00,20.00
"US1COLR0450","2002-01-12",,,0.00,0.00,0.00
"US1COLR0450","2002-01-13",,,0.00,0.00,0.00
"US1COLR0450","2002-01-14",,,0.00,0.00,0.00
"US1COLR0450","2002-01-15",,,0.00,0.00,0.00
"US1COLR0450","2002-01-16",,,0.00,0.00,0.00
"US1COLR0450","2002-01-17",,,0.00,0.00,0.00
"US1COLR0450","2002-01-18",,,0.00,0.00,0.00
"US1COLR0450","2002-01-19",,,0.00,0.00,0.00
"US1COLR0450","2002-01-20",,,0.00,0.00,0.00
"US1COLR0450","2002-01-21",,,0.00,0.00,0.00
"US1COLR0450","2002-01-22",,,0.00,0.00,0.00
"US1COLR0450","2002-01-23",,,46.00,71.00,71.00
"US1COLR0450","2002-01-24",,,0.00,0.00,43.00
"US1COLR0450","2002-01-25",,,0.00,0.00,20.00
"US1COLR0450","2002-01-26",,,0.00,0.00,0.00
"US1COLR0450","2002-01-27",,,0.00,0.00,0.00
"US1COLR0450","2002-01-28",,,0.00,0.00,0.00
"US1COLR0450","2002-01-29",,,0.00,0.00,0.00
"US1COLR0450","2002-01-30",,,107.00,173.00,173.00
"US1COLR0450","2002-01-31",,,0.00,0.00,135.00
"US1COLR0450","2002-02-01",,,0.00,0.00,94.00
"US1COLR0450","2002-02-02",,,0.00,0.00,36.00
"US1COLR0450","2002-02-03",,,0.00,0.00,20.00
"US1COLR0450","2002-02-04",,,0.00,0.00,20.00
"US1COLR0450","2002-02-05",,,0.00,0.00,13.00
"US1COLR0450","2002-02-06",,,0.00,0.00,0.00
"US1COLR0450","2002-02-07",,,0.00,0.00,0.00
"US1COLR0450","2002-02-08",,,0.00,0.00,0.00
"US1COLR0450","2002-02-09",,,0.00,0.00,0.00
"US1COLR0450","2002-02-10",,,0.00,0.00,0.00
"US1COLR0450","2002-02-11",,,0.00,0.00,0.00
"US1COLR0450","2002-02-12",,,0.00,0.00,0.00
"US1COLR0450","2002-02-13",,,0.00,0.00,0.00
"US1COLR0450","2002-02-14",,,0.00,0.00,0.00
"US1COLR0450","2002-02-15",,,0.00,0.00,0.00
"US1COLR0450","2002-02-16",,,0.00,0.00,0.00
"US1COLR0450","2002-02-17",,,0.00,0.00,0.00
"US1COLR0450","2002-02-18",,,0.00,0.00,0.00
"US1COLR0450","2002-02-19",,,0.00,0.00,0.00
"US1COLR0450","2002-02-20",,,0.00,0.00,0.00
"US1COLR0450","2002-02-21",,,0.00,0.00,0.00
"US1COLR0450","2002-02-22",,,0.00,0.00,0.00
"US1COLR0450","2002-02-23",,,0.00,0.00,0.00
"US1COLR0450","2002-02-24",,,0.00,0.00,0.00
"US1COLR0450","2002-02-25",,,64.00,84.00,84.00
"US1COLR0450","2002-02-26",,,10.00,5.00,76.00
"US1COLR0450","2002-02-27",,,0.00,0.00,71.00
"US1COLR0450","2002-02-28",,,0.00,0.00,
"US1COLR0450","2002-03-01",,,163.00,229.00,229.00
"US1COLR0450","2002-03-02",,,18.00,20.00,183.00
"US1COLR0450","2002-03-03",,,0.00,0.00,132.00
"US1COLR0450","2002-03-04",,,0.00,0.00,89.00
"US1COLR0450","2002-03-05",,,0.00,0.00,18.00
"US1COLR0450","2002-03-06",,,0.00,0.00,0.00
"US1COLR0450","2002-03-07",,,0.00,0.00,0.00
"US1COLR0450","2002-03-08",,,0.00,0.00,0.00
"US1COLR0450","2002-03-09",,,23.00,15.00,15.00
"US1COLR0450","2002-03-10",,,0.00,0.00,0.00
"US1COLR0450","2002-03-11",,,0.00,0.00,0.00
"US1COLR0450","2002-03-12",,,0.00,0.00,0.00
"US1COLR0450","2002-03-13",,,0.00,0.00,0.00
"US1COLR0450","2002-03-14",,,140.00,84.00,84.00
"US1COLR0450","2002-03-15",,,3.00,0.00,56.00
"US1COLR0450","2002-03-16",,,0.00,0.00,25.00
"US1COLR0450","2002-03-17",,,0.00,0.00,13.00
"US1COLR0450","2002-03-18",,,0.00,0.00,0.00
"US1COLR0450","2002-03-19",,,0.00,0.00,0.00
"US1COLR0450","2002-03-20",,,0.00,0.00,0.00
"US1COLR0450","2002-03-21",,,0.00,0.00,0.00
"US1COLR0450","2002-03-22",,,0.00,0.00,0.00
"US1COLR0450","2002-03-23",,,0.00,0.00,0.00
"US1COLR0450","2002-03-24",,,0.00,0.00,0.00
"US1COLR0450","2002-03-25",,,13.00,13.00,13.00
"US1COLR0450","2002-03-26",,,13.00,13.00,13.00
"US1COLR0450","2002-03-27",,,0.00,0.00,0.00
"US1COLR0450","2002-03-28",,,0.00,0.00,0.00
"US1COLR0450","2002-03-29",,,0.00,0.00,0.00
"US1COLR0450","2002-03-30",,,0.00,0.00,0.00
"US1COLR0450","2002-03-31",,,0.00,0.00,0.00
"US1COLR0450","2002-04-01",,,0.00,0.00,0.00
"US1COLR0450","2002-04-02",,,0.00,0.00,0.00
"US1COLR0450","2002-04-03",,,0.00,0.00,0.00
"US1COLR0450","2002-04-04",,,0.00,0.00,0.00
"US1COLR0450","2002-04-05",,,0.00,0.00,0.00
"US1COLR0450","2002-04-06",,,0.00,0.00,0.00
"US1COLR0450","2002-04-07",,,0.00,0.00,0.00
"US1COLR0450","2002-04-08",,,13.00,0.00,0.00
"US1COLR0450","2002-04-09",,,0.00,0.00,0.00
"US1COLR0450","2002-04-10",,,0.00,0.00,0.00
"US1COLR0450","2002-04-11",,,0.00,0.00,0.00
"US1COLR0450","2002-04-12",,,0.00,0.00,0.00
"US1COLR0450","2002-04-13",,,0.00,0.00,0.00
"US1COLR0450","2002-04-14",,,0.00,0.00,0.00
"US1COLR0450","2002-04-15",,,0.00,0.00,0.00
"US1COLR0450","2002-04-16",,,0.00,0.00,0.00
"US1COLR0450","2002-04-17",,,0.00,0.00,0.00
"US1COLR0450","2002-04-18",,,0.00,0.00,0.00
"US1COLR0450","2002-04-19",,,0.00,0.00,0.00
"US1COLR0450","2002-04-20",,,8.00,0.00,0.00
"US1COLR0450","2002-04-21",,,43.00,0.00,0.00
"US1COLR0450","2002-04-22",,,0.00,0.00,0.00
"US1COLR0450","2002-04-23",,,0.00,0.00,0.00
"US1COLR0450","2002-04-24",,,0.00,0.00,0.00
"US1COLR0450","2002-04-25",,,0.00,0.00,0.00
"US1COLR0450","2002-04-26",,,0.00,0.00,0.00
"US1COLR0450","2002-04-27",,,18.00,0.00,0.00
"US1COLR0450","2002-04-28",,,0.00,0.00,0.00
"US1COLR0450","2002-04-29",,,0.00,0.00,0.00
"US1COLR0450","2002-04-30",,,0.00,0.00,0.00
"US1COLR0450","2002-05-01",,,0.00,0.00,0.00
"US1COLR0450","2002-05-02",,,13.00,0.00,0.00
"US1COLR0450","2002-05-03",,,0.00,0.00,0.00
"US1COLR0450","2002-05-04",,,0.00,0.00,0.00
"US1COLR0450","2002-05-05",,,0.00,0.00,0.00
"US1COLR0450","2002-05-06",,,0.00,0.00,0.00
"US1COLR0450","2002-05-07",,,0.00,0.00,0.00
"US1COLR0450","2002-05-08",,,0.00,0.00,0.00
"US1COLR0450","2002-05-09",,,0.00,0.00,0.00
"US1COLR0450","2002-05-10",,,0.00,0.00,0.00
"US1COLR0450","2002-05-11",,,0.00,0.00,0.00
"US1COLR0450","2002-05-12",,,51.00,0.00,0.00
"US1COLR0450","2002-05-13",,,0.00,0.00,0.00
"US1COLR0450","2002-05-14",,,0.00,0.00,0.00
"US1COLR0450","2002-05-15",,,0.00,0.00,0.00
"US1COLR0450","2002-05-16",,,0.00,0.00,0.00
"US1COLR0450","2002-05-17",,,79.00,0.00,0.00
"US1COLR0450","2002-05-18",,,0.00,0.00,0.00
"US1COLR0450","2002-05-19",,,0.00,0.00,0.00
"US1COLR0450","2002-05-20",,,0.00,0.00,0.00
"US1COLR0450","2002-05-21",,,0.00,0.00,0.00
"US1COLR0450","2002-05-22",,,0.00,0.00,0.00
"US1COLR0450","2002-05-23",,,0.00,0.00,0.00
"US1COLR0450","2002-05-24",,,378.00,38.00,38.00
"US1COLR0450","2002-05-25",,,3.00,0.00,0.00
"US1COLR0450","2002-05-26",,,0.00,0.00,0.00
"US1COLR0450","2002-05-27",,,0.00,0.00,0.00
"US1COLR0450","2002-05-28",,,0.00,0.00,0.00
"US1COLR0450","2002-05-29",,,0.00,0.00,0.00
"US1COLR0450","2002-05-30",,,0.00,0.00,0.00
"US1COLR0450","2002-05-31",,,0.00,0.00,0.00
"US1COLR0450","2002-06-01",,,0.00,0.00,0.00
"US1COLR0450","2002-06-02",,,0.00,0.00,0.00
"US1COLR0450","2002-06-03",,,0.00,0.00,0.00
"US1COLR0450","2002-06-04",,,89.00,0.00,0.00
"US1COLR0450","2002-06-05",,,3.00,0.00,0.00
"US1COLR0450","2002-06-06",,,0.00,0.00,0.00
"US1COLR0450","2002-06-07",,,0.00,0.00,0.00
"US1COLR0450","2002-06-08",,,0.00,0.00,0.00
"US1COLR0450","2002-06-09",,,0.00,0.00,0.00
"US1COLR0450","2002-06-10",,,0.00,0.00,0.00
"US1COLR0450","2002-06-11",,,0.00,0.00,0.00
"US1COLR0450","2002-06-12",,,0.00,0.00,0.00
"US1COLR0450","2002-06-13",,,0.00,0.00,0.00
"US1COLR0450","2002-06-14",,,0.00,0.00,0.00
"US1COLR0450","2002-06-15",,,0.00,0.00,0.00
"US1COLR0450","2002-06-16",,,15.00,0.00,0.00
"US1COLR0450","2002-06-17",,,3.00,0.00,0.00
"US1COLR0450","2002-06-18",,,0.00,0.00,0.00
"US1COLR0450","2002-06-19",,,0.00,0.00,0.00
"US1COLR0450","2002-06-20",,,41.00,0.00,0.00
"US1COLR0450","2002-06-21",,,0.00,0.00,0.00
"US1COLR0450","2002-06-22",,,5.00,0.00,0.00
"US1COLR0450","2002-06-23",,,0.00,0.00,0.00
"US1COLR0450","2002-06-24",,,0.00,0.00,0.00
"US1COLR0450","2002-06-25",,,0.00,0.00,0.00
"US1COLR0450","2002-06-26",,,0.00,0.00,0.00
"US1COLR0450","2002-06-27",,,0.00,0.00,0.00
"US1COLR0450","2002-06-28",,,0.00,0.00,0.00
"US1COLR0450","2002-06-29",,,0.00,0.00,0.00
"US1COLR0450","2002-06-30",,,0.00,0.00,0.00
"US1COLR0450","2002-07-01",,,0.00,0.00,0.00
"US1COLR0450","2002-07-02",,,0.00,0.00,0.00
"US1COLR0450","2002-07-03",,,0.00,0.00,0.00
"US1COLR0450","2002-07-04",,,3.00,0.00,0.00
"US1COLR0450","2002-07-05",,,0.00,0.00,0.00
"US1COLR0450","2002-07-06",,,0.00,0.00,0.00
"US1COLR0450","2002-07-07",,,0.00,0.00,0.00
"US1COLR0450","2002-07-08",,,0.00,0.00,0.00
"US1COLR0450","2002-07-09",,,0.00,0.00,0.00
"US1COLR0450","2002-07-10",,,0.00,0.00,0.00
"US1COLR0450","2002-07-11",,,0.00,0.00,0.00
"US1COLR0450","2002-07-12",,,0.00,0.00,0.00
"US1COLR0450","2002-07-13",,,0.00,0.00,0.00
"US1COLR0450","2002-07-14",,,0.00,0.00,0.00
"US1COLR0450","2002-07-15",,,0.00,0.00,0.00
"US1COLR0450","2002-07-16",,,0.00,0.00,0.00
"US1COLR0450","2002-07-17",,,0.00,0.00,0.00
"US1COLR0450","2002-07-18",,,0.00,0.00,0.00
"US1COLR0450","2002-07-19",,,0.00,0.00,0.00
"US1COLR0450","2002-07-21",,,0.00,0.00,0.00
"US1COLR0450","2002-07-22",,,8.00,0.00,0.00
"US1COLR0450","2002-07-23",,,0.00,0.00,0.00
"US1COLR0450","2002-07-24",,,0.00,0.00,0.00
"US1COLR0450","2002-07-25",,,0.00,0.00,0.00
"US1COLR0450","2002-07-26",,,3.00,0.00,0.00
"US1COLR0450","2002-07-27",,,0.00,0.00,0.00
"US1COLR0450","2002-07-28",,,0.00,0.00,0.00
"US1COLR0450","2002-07-29",,,0.00,0.00,0.00
"US1COLR0450","2002-07-30",,,0.00,0.00,0.00
"US1COLR0450","2002-07-31",,,0.00,0.00,0.00
"US1COLR0450","2002-08-01",,,0.00,0.00,0.00
"US1COLR0450","2002-08-02",,,0.00,0.00,0.00
"US1COLR0450","2002-08-04",,,0.00,0.00,0.00
"US1COLR0450","2002-08-05",,,0.00,0.00,0.00
"US1COLR0450","2002-08-06",,,25.00,0.00,0.00
"US1COLR0450","2002-08-07",,,58.00,0.00,0.00
"US1COLR0450","2002-08-08",,,0.00,0.00,0.00
"US1COLR0450","2002-08-09",,,5.00,0.00,0.00
"US1COLR0450","2002-08-10",,,0.00,0.00,0.00
"US1COLR0450","2002-08-11",,,0.00,0.00,0.00
"US1COLR0450","2002-08-12",,,0.00,0.00,0.00
"US1COLR0450","2002-08-13",,,5.00,0.00,0.00
"US1COLR0450","2002-08-14",,,0.00,0.00,0.00
"US1COLR0450","2002-08-15",,,0.00,0.00,0.00
"US1COLR0450","2002-08-16",,,0.00,0.00,0.00
"US1COLR0450","2002-08-17",,,0.00,0.00,0.00
"US1COLR0450","2002-08-18",,,0.00,0.00,0.00
"US1COLR0450","2002-08-19",,,0.00,0.00,0.00
"US1COLR0450","2002-08-20",,,0.00,0.00,0.00
"US1COLR0450","2002-08-21",,,3.00,0.00,0.00
"US1COLR0450","2002-08-22",,,8.00,0.00,0.00
"US1COLR0450","2002-08-23",,,0.00,0.00,0.00
"US1COLR0450","2002-08-24",,,0.00,0.00,0.00
"US1COLR0450","2002-08-25",,,0.00,0.00,0.00
"US1COLR0450","2002-08-26",,,0.00,0.00,0.00
"US1COLR0450","2002-08-27",,,51.00,0.00,0.00
"US1COLR0450","2002-08-28",,,0.00,0.00,0.00
"US1COLR0450","2002-08-29",,,0.00,0.00,0.00
"US1COLR0450","2002-08-30",,,0.00,0.00,0.00
"US1COLR0450","2002-08-31",,,0.00,0.00,0.00
"US1COLR0450","2002-09-01",,,0.00,0.00,0.00
"US1COLR0450","2002-09-02",,,0.00,0.00,0.00
"US1COLR0450","2002-09-03",,,0.00,0.00,0.00
"US1COLR0450","2002-09-04",,,0.00,0.00,0.00
"US1COLR0450","2002-09-05",,,0.00,0.00,0.00
"US1COLR0450","2002-09-06",,,0.00,0.00,0.00
"US1COLR0450","2002-09-07",,,0.00,0.00,0.00
"US1COLR0450","2002-09-09",,,97.00,0.00,0.00
"US1COLR0450","2002-09-10",,,76.00,0.00,0.00
"US1COLR0450","2002-09-11",,,0.00,0.00,0.00
"US1COLR0450","2002-09-12",,,185.00,0.00,0.00
"US1COLR0450","2002-09-13",,,56.00,0.00,0.00
"US1COLR0450","2002-09-14",,,8.00,0.00,0.00
"US1COLR0450","2002-09-15",,,0.00,0.00,0.00
"US1COLR0450","2002-09-16",,,0.00,0.00,0.00
"US1COLR0450","2002-09-26",,,10.00,0.00,0.00
"US1COLR0450","2002-09-27",,,3.00,0.00,0.00
"US1COLR0450","2002-09-28",,,0.00,0.00,0.00
"US1COLR0450","2002-09-29",,,0.00,0.00,0.00
"US1COLR0450","2002-09-30",,,0.00,0.00,0.00
"US1COLR0450","2002-10-01",,,0.00,0.00,0.00
"US1COLR0450","2002-10-02",,,56.00,0.00,0.00
"US1COLR0450","2002-10-03",,,15.00,0.00,0.00
"US1COLR0450","2002-10-04",,,48.00,0.00,0.00
"US1COLR0450","2002-10-05",,,0.00,0.00,0.00
"US1COLR0450","2002-10-06",,,0.00,0.00,0.00
"US1COLR0450","2002-10-07",,,0.00,0.00,0.00
"US1COLR0450","2002-10-08",,,0.00,0.00,0.00
"US1COLR0450","2002-10-09",,,0.00,0.00,0.00
"US1COLR0450","2002-10-10",,,0.00,0.00,0.00
"US1COLR0450","2002-10-11",,,0.00,0.00,0.00
"US1COLR0450","2002-10-12",,,0.00,0.00,0.00
"US1COLR0450","2002-10-13",,,0.00,0.00,0.00
"US1COLR0450","2002-10-14",,,0.00,0.00,0.00
"US1COLR0450","2002-10-15",,,0.00,0.00,0.00
"US1COLR0450","2002-10-16",,,0.00,0.00,0.00
"US1COLR0450","2002-10-17",,,0.00,0.00,0.00
"US1COLR0450","2002-10-18",,,0.00,0.00,0.00
"US1COLR0450","2002-10-19",,,0.00,0.00,0.00
"US1COLR0450","2002-10-20",,,0.00,0.00,0.00
"US1COLR0450","2002-10-21",,,0.00,0.00,0.00
"US1COLR0450","2002-10-22",,,0.00,0.00,0.00
"US1COLR0450","2002-10-23",,,3.00,0.00,0.00
"US1COLR0450","2002-10-24",,,10.00,0.00,0.00
"US1COLR0450","2002-10-25",,,0.00,0.00,0.00
"US1COLR0450","2002-10-26",,,0.00,0.00,0.00
"US1COLR0450","2002-10-27",,,3.00,0.00,0.00
"US1COLR0450","2002-10-28",,,0.00,0.00,0.00
"US1COLR0450","2002-10-29",,,28.00,25.00,25.00
"US1COLR0450","2002-10-30",,,25.00,38.00,51.00
"US1COLR0450","2002-10-31",,,15.00,10.00,76.00
"US1COLR0450","2002-11-01",,,104.00,178.00,203.00
"US1COLR0450","2002-11-02",,,0.00,0.00,127.00
"US1COLR0450","2002-11-03",,,25.00,33.00,127.00
"US1COLR0450","2002-11-04",,,0.00,0.00,84.00
"US1COLR0450","2002-11-05",,,0.00,0.00,58.00
"US1COLR0450","2002-11-06",,,0.00,0.00,25.00
"US1COLR0450","2002-11-07",,,0.00,0.00,0.00
"US1COLR0450","2002-11-08",,,0.00,0.00,0.00
"US1COLR0450","2002-11-09",,,0.00,0.00,0.00
"US1COLR0450","2002-11-10",,,0.00,0.00,0.00
"US1COLR0450","2002-11-11",,,0.00,0.00,0.00
"US1COLR0450","2002-11-12",,,0.00,0.00,0.00
"US1COLR0450","2002-11-13",,,0.00,0.00,0.00
"US1COLR0450","2002-11-14",,,3.00,0.00,0.00
"US1COLR0450","2002-11-15",,,0.00,0.00,0.00
"US1COLR0450","2002-11-16",,,0.00,0.00,0.00
"US1COLR0450","2002-11-17",,,0.00,0.00,0.00
"US1COLR0450","2002-11-18",,,0.00,0.00,0.00
"US1COLR0450","2002-11-19",,,0.00,0.00,0.00
"US1COLR0450","2002-11-20",,,0.00,0.00,0.00
"US1COLR0450","2002-11-22",,,0.00,0.00,0.00
"US1COLR0450","2002-11-23",,,0.00,0.00,0.00
"US1COLR0450","2002-11-24",,,41.00,0.00,0.00
"US1COLR0450","2002-11-25",,,58.00,0.00,0.00
"US1COLR0450","2002-11-26",,,0.00,0.00,0.00
"US1COLR0450","2002-11-27",,,0.00,0.00,0.00
"US1COLR0450","2002-11-28",,,0.00,0.00,0.00
"US1COLR0450","2002-11-29",,,0.00,0.00,0.00
"US1COLR0450","2002-11-30",,,0.00,0.00,0.00
"US1COLR0450","2002-12-02",,,0.00,0.00,0.00
"US1COLR0450","2002-12-03",,,0.00,0.00,0.00
"US1COLR0450","2002-12-04",,,0.00,0.00,0.00
"US1COLR0450","2002-12-05",,,3.00,0.00,0.00
"US1COLR0450","2002-12-06",,,0.00,0.00,0.00
"US1COLR0450","2002-12-07",,,0.00,0.00,0.00
"US1COLR0450","2002-12-08",,,0.00,0.00,0.00
"US1COLR0450","2002-12-09",,,0.00,0.00,0.00
"US1COLR0450","2002-12-10",,,0.00,0.00,0.00
"US1COLR0450","2002-12-11",,,0.00,0.00,0.00
"US1COLR0450","2002-12-12",,,0.00,0.00,0.00
"US1COLR0450","2002-12-13",,,0.00,0.00,0.00
"US1COLR0450","2002-12-14",,,0.00,0.00,0.00
"US1COLR0450","2002-12-15",,,0.00,0.00,0.00
"US1COLR0450","2002-12-16",,,0.00,0.00,0.00
"US1COLR0450","2002-12-17",,,0.00,0.00,0.00
"US1COLR0450","2002-12-18",,,0.00,0.00,0.00
"US1COLR0450","2002-12-19",,,0.00,0.00,0.00
"US1COLR0450","2002-12-20",,,0.00,0.00,0.00
"US1COLR0450","2002-12-21",,,0.00,0.00,0.00
"US1COLR0450","2002-12-22",,,0.00,0.00,0.00
"US1COLR0450","2002-12-23",,,0.00,0.00,0.00
"US1COLR0450","2002-12-26",,,0.00,0.00,0.00
"US1COLR0450","2002-12-27",,,0.00,0.00,0.00
"US1COLR0450","2002-12-28",,,0.00,0.00,0.00
"US1COLR0450","2002-12-29",,,0.00,0.00,0.00
"US1COLR0450","2002-12-30",,,0.00,0.00,0.00
"US1COLR0450","2002-12-31",,,0.00,0.00,0.00
"US1COLR0450","2003-01-01",,,0.00,0.00,0.00
"US1COLR0450","2003-01-02",,,0.00,0.00,0.00
"US1COLR0450","2003-01-03",,,0.00,0.00,0.00
"US1COLR0450","2003-01-04",,,0.00,0.00,0.00
"US1COLR0450","2003-01-05",,,0.00,0.00,0.00
"US1COLR0450","2003-01-06",,,0.00,0.00,0.00
"US1COLR0450","2003-01-07",,,0.00,0.00,0.00
"US1COLR0450","2003-01-08",,,0.00,0.00,0.00
"US1COLR0450","2003-01-09",,,0.00,0.00,0.00
"US1COLR0450","2003-01-10",,,0.00,0.00,0.00
"US1COLR0450","2003-01-11",,,0.00,0.00,0.00
"US1COLR0450","2003-01-12",,,0.00,0.00,0.00
"US1COLR0450","2003-01-13",,,0.00,0.00,0.00
"US1COLR0450","2003-01-14",,,0.00,0.00,0.00
"US1COLR0450","2003-01-15",,,0.00,0.00,0.00
"US1COLR0450","2003-01-16",,,0.00,0.00,0.00
"US1COLR0450","2003-01-17",,,13.00,18.00,18.00
"US1COLR0450","2003-01-18",,,0.00,0.00,0.00
"US1COLR0450","2003-01-19",,,0.00,0.00,0.00
"US1COLR0450","2003-01-20",,,0.00,0.00,0.00
"US1COLR0450","2003-01-21",,,0.00,0.00,0.00
"US1COLR0450","2003-01-22",,,0.00,0.00,0.00
"US1COLR0450","2003-01-23",,,3.00,8.00,8.00
"US1COLR0450","2003-01-24",,,0.00,0.00,0.00
"US1COLR0450","2003-01-25",,,0.00,0.00,0.00
"US1COLR0450","2003-01-26",,,0.00,0.00,0.00
"US1COLR0450","2003-01-27",,,0.00,0.00,0.00
"US1COLR0450","2003-01-28",,,0.00,0.00,0.00
"US1COLR0450","2003-01-29",,,0.00,0.00,0.00
"US1COLR0450","2003-01-30",,,0.00,0.00,0.00
"US1COLR0450","2003-01-31",,,0.00,0.00,0.00
"US1COLR0450","2003-02-01",,,0.00,0.00,0.00
"US1COLR0450","2003-02-03",,,112.00,137.00,137.00
"US1COLR0450","2003-02-04",,,0.00,0.00,86.00
"US1COLR0450","2003-02-05",,,0.00,0.00,76.00
"US1COLR0450","2003-02-06",,,18.00,28.00,94.00
"US1COLR0450","2003-02-07",,,0.00,0.00,69.00
"US1COLR0450","2003-02-08",,,0.00,0.00,64.00
"US1COLR0450","2003-02-09",,,18.00,46.00,99.00
"US1COLR0450","2003-02-10",,,0.00,0.00,89.00
"US1COLR0450","2003-02-11",,,0.00,0.00,38.00
"US1COLR0450","2003-02-12",,,0.00,0.00,13.00
"US1COLR0450","2003-02-13",,,0.00,0.00,0.00
"US1COLR0450","2003-02-14",,,0.00,0.00,0.00
"US1COLR0450","2003-02-15",,,10.00,15.00,15.00
"US1COLR0450","2003-02-16",,,3.00,0.00,0.00
"US1COLR0450","2003-02-17",,,0.00,0.00,0.00
"US1COLR0450","2003-02-18",,,0.00,0.00,0.00
"US1COLR0450","2003-02-19",,,5.00,18.00,18.00
"US1COLR0450","2003-02-20",,,0.00,0.00,0.00
"US1COLR0450","2003-02-21",,,0.00,0.00,0.00
"US1COLR0450","2003-02-22",,,0.00,0.00,0.00
"US1COLR0450","2003-02-23",,,0.00,0.00,0.00
"US1COLR0450","2003-02-24",,,38.00,33.00,33.00
"US1COLR0450","2003-02-25",,,0.00,0.00,23.00